Wind_Speed
3 3 3 3 2 3 3 4 4 4 4 4 3 2 2 3 3 3 3 3 2 2 2 3 3 3 2 2 1 1 1 1 1 1 1 3 4 5 5 6 6 6 7
3 2 3 2 2 2 2 3 3 3 3 3 3 3 2 2 2 2 2 2 2 2 2 3 3 2 2 1 1 1 1 1 1 1 2 3 4 5 5 5 6 6 8
3 2 2 1 1 1 1 1 2 3 3 3 3 2 2 2 2 2 2 1 1 1 2 2 2 2 1 1 1 1 1 1 1 2 2 3 4 4 5 6 7 7 8
2 2 1 0 0 0 1 1 1 2 2 2 2 2 2 2 2 2 2 2 2 2 1 0 1 1 2 2 2 2 2 2 2 2 3 3 3 4 5 5 6 7 8
3 2 1 1 1 1 1 1 1 1 1 1 1 1 1 1 0 0 1 1 1 1 0 0 1 1 2 3 3 3 3 3 3 3 3 4 4 4 5 6 7 7 8
3 2 2 2 2 2 2 2 2 2 2 1 1 1 1 1 1 0 1 1 0 1 1 1 1 2 3 3 3 3 3 4 4 4 4 4 5 5 6 7 7 7 8
3 3 3 3 3 3 3 3 3 3 3 3 1 1 1 1 1 1 1 1 1 1 1 2 2 3 3 3 3 4 4 4 4 4 4 5 6 6 7 7 7 6 7
4 3 3 3 3 4 4 4 5 4 4 4 3 2 2 1 1 2 2 2 2 2 2 2 3 3 3 3 4 4 4 5 5 5 5 5 6 6 7 7 7 7 7
5 4 4 4 4 5 5 4 5 5 5 4 3 3 3 2 3 3 3 2 3 3 3 3 3 4 4 4 4 4 5 5 6 5 5 5 6 6 7 7 8 8 8
6 6 5 4 5 6 6 6 6 5 6 5 4 4 4 4 4 4 4 4 3 3 3 4 4 4 4 4 4 5 5 6 6 6 6 6 6 7 7 8 8 8 8
7 6 6 5 6 6 6 6 6 6 6 6 5 4 4 5 5 4 4 4 4 4 4 4 4 4 5 5 5 5 6 6 7 7 7 7 7 7 7 8 8 9 8
8 7 7 7 7 7 7 7 7 7 7 7 6 5 5 5 5 4 4 4 4 4 4 4 5 5 5 5 6 6 7 7 7 7 7 7 7 7 7 7 8 8 8
9 9 8 8 7 7 7 8 8 8 7 7 6 6 6 6 5 5 4 4 4 4 5 5 5 6 6 6 6 6 7 7 8 7 7 7 7 7 7 7 8 8 8
10 9 9 9 8 9 9 9 9 8 8 8 7 6 6 6 5 4 4 4 5 5 5 5 5 5 6 6 6 7 7 7 7 7 8 8 8 8 8 8 8 8 8
10 10 10 10 9 9 9 9 8 8 8 6 5 6 5 5 5 5 5 5 5 5 5 5 5 5 6 6 7 7 7 7 7 8 8 9 8 8 7 7 7 7 8
11 11 11 11 10 10 10 9 8 7 8 6 6 6 6 6 6 6 6 6 6 5 5 5 5 5 5 6 6 7 8 7 8 8 9 9 9 8 7 7 7 8 9
11 11 11 11 11 10 10 9 9 8 7 7 6 6 6 6 6 6 6 6 6 6 6 6 6 6 6 6 6 7 7 7 8 9 9 9 9 9 8 8 9 9 9
11 11 11 11 11 11 11 10 9 8 8 8 8 7 7 7 7 7 7 7 7 6 6 6 6 6 6 7 7 7 8 8 8 8 9 9 9 9 9 8 8 8 9
10 11 10 11 11 10 10 9 8 8 8 8 8 8 8 8 8 8 8 7 7 7 7 7 6 7 7 7 7 7 8 8 8 8 9 9 9 9 9 9 9 9 9
10 10 10 10 9 10 10 10 9 9 9 9 9 9 9 9 8 8 8 8 7 7 7 7 8 8 8 8 7 7 8 8 8 9 9 10 10 9 9 9 9 10 10
9 9 10 10 9 9 9 9 9 9 9 9 9 10 9 9 8 8 8 7 7 7 7 8 8 8 9 8 7 8 8 8 9 9 10 10 10 10 10 10 10 10 11
9 9 9 9 9 9 9 9 9 9 9 9 9 8 8 8 9 9 8 8 8 8 8 9 9 9 9 9 9 9 9 9 9 9 10 10 10 10 10 10 10 11 11
9 10 10 10 10 10 10 10 9 9 9 8 8 9 8 8 8 8 8 9 9 9 9 9 9 10 10 10 10 10 10 9 9 9 10 10 10 11 11 11 11 11 11
10 10 10 10 11 11 10 9 9 9 9 9 9 9 9 9 8 9 9 9 9 9 9 9 10 10 10 11 11 11 11 10 10 10 10 11 11 11 12 12 13 13 13
10 10 11 11 11 10 10 10 9 9 10 9 9 9 9 9 9 9 10 10 10 10 10 10 10 11 11 12 12 12 11 11 11 11 11 11 11 11 12 12 13 13 13
10 10 11 11 11 10 10 10 10 9 10 10 10 10 10 10 9 9 10 10 10 10 10 10 10 11 12 12 12 12 12 12 12 12 12 12 12 12 13 13 13 14 14
Wind_Direction
121 97 77 74 70 72 68 66 69 62 56 53 52 56 58 64 72 57 52 87 89 99 123 133 136 139 135 140 142 163 209 232 247 278 230 222 223 229 231 227 231 224 222
129 107 87 70 63 66 68 59 64 60 52 48 45 50 60 68 69 58 65 83 91 98 116 138 136 142 148 157 160 177 225 238 257 255 226 226 236 240 238 237 235 233 227
149 132 102 79 59 69 73 44 57 55 47 40 41 48 54 61 60 59 66 66 59 90 112 125 144 149 166 200 221 228 233 227 235 243 240 243 248 247 250 247 236 239 236
168 157 147 53 65 320 340 348 32 40 34 31 43 45 38 47 63 59 46 49 58 87 99 124 165 208 237 254 251 237 237 237 241 245 248 248 248 246 250 254 243 241 241
184 187 217 259 247 255 277 297 295 349 2 19 38 40 18 15 40 54 64 42 50 63 73 291 210 242 254 256 251 244 238 244 250 250 254 256 254 253 255 257 257 248 244
199 202 234 254 249 252 266 281 288 292 310 319 340 4 346 327 321 357 339 334 334 336 318 314 278 276 263 254 250 248 242 247 255 255 259 258 258 260 261 263 265 255 252
207 213 233 246 250 249 259 273 281 281 283 281 280 300 287 287 289 295 286 264 277 293 312 308 294 287 274 267 255 250 247 248 253 258 264 262 263 265 265 268 266 258 252
221 223 230 241 248 252 260 271 277 284 278 282 273 268 288 302 307 296 275 296 304 303 308 303 297 290 287 277 258 247 248 251 254 260 265 266 267 265 267 268 265 262 258
227 232 237 247 260 260 261 267 278 281 275 279 275 272 281 283 282 284 287 291 302 303 301 301 293 282 280 276 266 256 252 254 255 259 262 266 271 273 272 271 268 265 259
233 239 245 254 264 264 260 265 266 271 274 274 272 275 272 273 273 274 279 280 286 293 293 293 293 283 278 276 270 263 256 257 258 261 260 263 271 273 274 272 271 269 264
240 246 252 258 267 266 264 266 265 263 266 269 270 271 276 278 278 273 282 286 281 282 286 289 291 288 280 278 274 267 262 260 258 261 260 264 266 270 274 272 273 273 269
243 249 258 260 264 264 264 260 267 264 266 265 264 270 273 275 282 280 284 290 287 284 286 290 287 284 281 280 274 268 266 266 263 260 261 264 262 262 266 269 272 271 272
248 253 261 263 261 263 265 265 268 270 271 266 259 267 273 273 278 283 284 287 286 284 286 287 287 279 277 278 276 269 265 266 266 265 263 262 261 258 261 264 267 271 272
252 257 261 263 262 267 271 273 270 268 268 265 260 267 276 275 277 275 276 277 283 285 284 285 281 276 273 274 276 273 270 266 264 267 265 262 262 259 259 263 265 266 271
256 260 261 261 264 266 269 270 265 264 265 261 263 269 278 282 277 271 272 276 279 283 283 282 281 277 274 276 277 274 271 268 271 268 268 269 267 266 265 269 269 269 274
263 264 260 260 263 265 262 264 262 264 261 259 265 268 271 274 274 274 270 272 278 282 285 282 278 273 276 278 279 277 273 271 270 270 268 269 265 265 269 273 275 274 273
263 264 260 259 261 262 261 264 265 264 261 263 267 269 271 271 271 272 271 273 275 279 284 283 280 270 270 276 279 279 277 274 273 270 269 270 267 266 268 268 272 275 271
263 261 260 261 260 260 263 260 262 265 266 269 269 271 270 269 269 271 274 273 275 276 278 279 279 277 276 280 282 282 278 278 278 273 271 272 273 271 270 270 272 273 269
263 261 261 261 263 260 261 262 266 268 270 271 270 270 268 269 270 272 274 271 269 269 270 272 276 279 282 285 286 284 281 281 278 275 271 271 274 274 273 275 275 276 276
263 263 263 269 270 272 270 265 265 267 269 270 270 271 271 270 270 273 273 270 267 265 267 269 275 278 281 283 287 290 288 282 277 275 274 272 274 273 274 275 276 277 277
264 263 262 266 267 272 275 268 265 267 269 273 275 274 275 272 271 272 270 269 266 266 267 269 274 277 277 276 280 287 290 288 282 279 277 274 273 272 275 276 276 276 277
265 263 265 268 271 271 271 271 272 271 271 274 278 278 276 273 271 270 269 269 267 267 269 269 272 277 278 279 281 287 291 292 288 284 282 279 280 279 278 280 279 277 277
265 264 265 268 271 270 270 271 272 274 276 277 278 276 275 273 271 270 267 267 266 267 269 270 272 275 277 279 280 283 287 288 286 284 283 281 281 281 281 282 282 282 281
268 269 271 271 271 272 269 268 268 273 275 276 277 275 274 273 271 268 265 268 268 268 270 272 274 276 279 281 283 283 283 282 281 281 281 283 281 281 281 282 282 281 282
268 268 270 271 271 272 272 267 268 273 276 277 277 276 274 270 269 269 267 266 265 265 268 273 276 276 279 281 280 280 279 278 277 278 281 282 284 284 285 284 282 281 282
266 266 266 268 267 268 271 271 269 272 274 275 275 275 273 269 268 267 269 267 266 265 268 271 274 277 278 281 279 276 276 277 276 278 280 281 281 283 286 285 284 282 284
Height
5894 5893 5892 5892 5892 5892 5892 5891 5891 5890 5890 5889 5888 5888 5887 5887 5886 5886 5885 5885 5884 5884 5884 5884 5884 5884 5884 5884 5884 5884 5884 5884 5884 5883 5883 5883 5883 5883 5883 5883 5883 5884 5884
5893 5893 5893 5892 5892 5892 5892 5891 5891 5891 5890 5889 5889 5888 5887 5887 5886 5886 5886 5885 5884 5884 5884 5884 5884 5884 5884 5884 5884 5884 5884 5884 5884 5883 5883 5883 5883 5883 5883 5882 5883 5883 5883
5893 5893 5893 5892 5892 5892 5892 5891 5891 5891 5890 5890 5889 5888 5888 5887 5887 5886 5886 5885 5885 5884 5884 5884 5884 5884 5884 5884 5884 5884 5884 5884 5883 5883 5883 5883 5882 5882 5882 5882 5882 5882 5882
5893 5892 5892 5892 5892 5892 5891 5891 5891 5890 5890 5889 5889 5888 5888 5887 5887 5886 5886 5885 5885 5884 5884 5884 5884 5884 5884 5884 5884 5884 5883 5883 5883 5883 5883 5882 5882 5882 5881 5881 5881 5881 5881
5892 5892 5892 5892 5892 5891 5891 5891 5890 5890 5890 5889 5888 5888 5888 5887 5886 5886 5886 5885 5885 5884 5884 5884 5884 5884 5883 5883 5883 5883 5883 5883 5883 5882 5882 5882 5881 5881 5881 5881 5880 5880 5880
5892 5892 5892 5892 5891 5891 5891 5890 5890 5890 5889 5889 5888 5888 5887 5887 5886 5886 5885 5885 5884 5884 5884 5884 5883 5883 5883 5883 5882 5882 5882 5882 5882 5882 5881 5881 5881 5880 5880 5880 5879 5879 5879
5891 5891 5891 5891 5891 5890 5890 5890 5889 5889 5888 5888 5888 5887 5887 5886 5886 5885 5885 5884 5884 5884 5883 5883 5883 5882 5882 5882 5881 5881 5881 5881 5881 5881 5880 5880 5880 5879 5879 5879 5878 5878 5878
5890 5890 5890 5890 5890 5890 5890 5889 5889 5888 5887 5887 5887 5886 5886 5886 5885 5885 5884 5884 5883 5883 5883 5882 5882 5881 5881 5881 5880 5880 5880 5880 5880 5880 5879 5879 5878 5878 5878 5877 5877 5877 5877
5890 5890 5890 5889 5889 5889 5889 5888 5888 5887 5887 5886 5886 5886 5886 5885 5885 5884 5884 5883 5883 5882 5882 5881 5881 5880 5880 5880 5879 5879 5879 5879 5879 5879 5878 5878 5877 5877 5877 5876 5876 5875 5875
5888 5889 5888 5888 5888 5888 5887 5887 5886 5886 5886 5886 5885 5885 5885 5884 5884 5883 5883 5882 5882 5881 5881 5880 5880 5879 5879 5879 5878 5878 5878 5878 5878 5877 5877 5876 5876 5876 5875 5875 5874 5874 5874
5887 5887 5887 5887 5886 5886 5886 5886 5885 5885 5884 5884 5884 5884 5883 5883 5882 5882 5881 5881 5881 5880 5880 5879 5879 5878 5878 5877 5877 5877 5876 5876 5876 5876 5875 5875 5875 5874 5874 5873 5873 5872 5872
5886 5886 5886 5886 5885 5885 5885 5884 5884 5883 5883 5883 5883 5882 5882 5882 5881 5881 5880 5880 5879 5879 5879 5878 5878 5877 5877 5876 5876 5875 5875 5875 5874 5874 5874 5874 5873 5873 5872 5872 5871 5871 5870
5884 5884 5884 5884 5884 5883 5883 5883 5882 5882 5882 5881 5881 5881 5881 5880 5880 5880 5879 5879 5878 5878 5877 5877 5876 5876 5875 5875 5874 5874 5873 5873 5873 5873 5872 5872 5872 5871 5870 5870 5870 5869 5869
5882 5883 5883 5882 5882 5882 5881 5881 5880 5880 5880 5880 5880 5879 5879 5879 5878 5878 5878 5877 5877 5876 5876 5875 5875 5874 5874 5873 5873 5872 5872 5871 5871 5871 5870 5870 5870 5869 5868 5868 5868 5867 5867
5881 5881 5881 5881 5880 5880 5879 5879 5879 5878 5878 5878 5878 5878 5878 5878 5877 5877 5877 5876 5876 5875 5874 5874 5873 5873 5872 5872 5871 5871 5870 5870 5869 5869 5868 5868 5868 5867 5867 5866 5866 5865 5865
5879 5879 5879 5879 5878 5878 5877 5877 5877 5877 5877 5877 5877 5876 5876 5876 5876 5876 5875 5875 5874 5874 5873 5873 5872 5871 5871 5870 5870 5869 5869 5868 5868 5867 5867 5866 5866 5865 5865 5864 5864 5863 5863
5876 5876 5876 5876 5876 5875 5875 5875 5875 5875 5875 5875 5875 5875 5875 5875 5874 5874 5874 5873 5873 5872 5872 5871 5870 5870 5869 5869 5869 5868 5867 5866 5866 5865 5865 5864 5864 5863 5863 5862 5862 5861 5860
5873 5874 5874 5874 5874 5874 5873 5873 5873 5873 5873 5873 5873 5873 5873 5873 5873 5872 5872 5872 5871 5871 5870 5870 5869 5868 5868 5867 5867 5866 5865 5865 5864 5863 5863 5862 5862 5861 5861 5860 5860 5859 5858
5871 5871 5872 5872 5872 5872 5872 5871 5871 5871 5871 5871 5871 5871 5871 5871 5871 5871 5870 5870 5869 5869 5868 5868 5868 5867 5866 5866 5865 5864 5864 5863 5862 5862 5861 5861 5860 5859 5859 5858 5857 5857 5856
5869 5869 5870 5870 5870 5870 5869 5870 5870 5870 5869 5869 5869 5869 5869 5869 5869 5868 5868 5867 5867 5867 5867 5866 5866 5865 5865 5864 5863 5863 5862 5861 5860 5860 5859 5859 5858 5857 5857 5856 5855 5854 5854
5867 5867 5868 5868 5868 5868 5868 5867 5868 5868 5868 5867 5867 5867 5867 5867 5867 5866 5866 5865 5865 5865 5865 5864 5864 5863 5863 5862 5862 5861 5860 5859 5858 5858 5857 5857 5856 5855 5854 5854 5853 5852 5851
5865 5865 5866 5866 5866 5866 5866 5866 5866 5866 5866 5865 5865 5865 5865 5864 5864 5864 5864 5863 5863 5863 5862 5862 5862 5861 5861 5860 5860 5859 5858 5858 5856 5855 5855 5854 5853 5853 5852 5851 5850 5850 5849
5863 5863 5863 5864 5864 5864 5864 5864 5864 5864 5863 5863 5863 5863 5863 5862 5862 5862 5862 5861 5861 5861 5860 5860 5859 5859 5858 5858 5857 5857 5856 5855 5854 5854 5852 5852 5851 5850 5850 5849 5848 5847 5846
5861 5861 5861 5862 5862 5862 5861 5862 5862 5862 5861 5861 5861 5861 5860 5860 5860 5859 5859 5859 5859 5858 5858 5857 5857 5856 5856 5855 5854 5854 5853 5852 5852 5851 5850 5849 5848 5848 5847 5846 5845 5844 5843
5859 5859 5859 5859 5859 5859 5859 5859 5859 5859 5859 5859 5859 5858 5858 5858 5857 5857 5857 5856 5856 5856 5855 5855 5854 5854 5853 5853 5852 5851 5850 5850 5849 5848 5848 5847 5846 5845 5844 5843 5842 5841 5840
5856 5857 5857 5857 5857 5857 5857 5857 5857 5857 5857 5856 5856 5856 5855 5855 5855 5855 5854 5854 5854 5853 5853 5852 5852 5851 5850 5850 5849 5848 5847 5847 5846 5845 5844 5844 5843 5842 5841 5840 5839 5838 5837